Location: Archemont
(49.1579°N, 1.7598°E)
Time: 09:59:54
(UTC+00:00)

S-56A Canister/Altair - Pass Details

Date: 23 April 2024
Orbit: 638 x 2488 km, 38.9° (Epoch: 20 May)

Event Time Altitude Azimuth Distance (km) Brightness Sun altitude
Rises 19:18:10 0° 261° (W) 3,474 12.0 -3.9°
Reaches altitude 10° 19:20:36 10° 251° (WSW) 2,721 11.1 -4.2°
Maximum altitude 19:26:24 33° 190° (S) 1,952 9.5 -5.1°
Drops below altitude 10° 19:34:35 10° 131° (SE) 3,878 10.5 -6.3°
Enters shadow 19:35:58 - 128° (SE) 4,308 10.7 -6.5°
Sets 19:38:48 0° 124° (SE) 5,187 - -6.9°
